QPF
0.03 0.03 0.03 0.03 0.03 0.03 0.02 0.02 0.02 0.02 0.03 0.03 0.06 0.14 0.15 0.09 0.10 0.10 0.09 0.10 0.08 0.06 0.06 0.04 0.04 0.08 0.10 0.10 0.07 0.05 0.04 0.04 0.03 0.03 0.03 0.02 0.03 0.02 0.01 0.01 0.01 0.01 0.01
0.03 0.03 0.04 0.03 0.02 0.02 0.02 0.02 0.02 0.02 0.03 0.05 0.09 0.13 0.12 0.08 0.09 0.10 0.10 0.10 0.09 0.08 0.07 0.05 0.04 0.04 0.05 0.05 0.04 0.04 0.03 0.02 0.02 0.03 0.03 0.02 0.02 0.02 0.01 0.01 0.01 0.01 0.01
0.03 0.02 0.03 0.03 0.02 0.02 0.02 0.02 0.02 0.03 0.05 0.06 0.09 0.10 0.09 0.08 0.08 0.07 0.07 0.07 0.08 0.09 0.07 0.05 0.05 0.03 0.03 0.03 0.02 0.02 0.02 0.02 0.02 0.02 0.02 0.02 0.01 0.02 0.02 0.01 0.01 0.01 0.01
0.02 0.02 0.03 0.03 0.03 0.03 0.04 0.04 0.03 0.04 0.07 0.08 0.09 0.10 0.10 0.09 0.07 0.06 0.06 0.07 0.07 0.07 0.06 0.05 0.05 0.04 0.02 0.02 0.02 0.02 0.03 0.04 0.03 0.02 0.02 0.02 0.01 0.01 0.02 0.03 0.02 0.02 0.01
0.02 0.02 0.03 0.03 0.03 0.04 0.05 0.06 0.07 0.08 0.08 0.09 0.12 0.12 0.12 0.11 0.09 0.08 0.06 0.08 0.09 0.09 0.07 0.05 0.04 0.04 0.03 0.02 0.01 0.01 0.02 0.04 0.03 0.02 0.02 0.03 0.02 0.02 0.01 0.02 0.03 0.03 0.02
0.02 0.02 0.02 0.02 0.03 0.04 0.06 0.08 0.08 0.08 0.08 0.09 0.12 0.15 0.14 0.12 0.11 0.09 0.07 0.06 0.09 0.09 0.09 0.08 0.06 0.04 0.03 0.03 0.03 0.02 0.02 0.03 0.02 0.02 0.02 0.02 0.03 0.03 0.02 0.02 0.02 0.02 0.02
0.01 0.01 0.02 0.02 0.02 0.02 0.03 0.05 0.08 0.08 0.07 0.08 0.09 0.12 0.14 0.14 0.11 0.10 0.10 0.09 0.09 0.09 0.08 0.06 0.05 0.04 0.03 0.03 0.03 0.02 0.02 0.02 0.01 0.02 0.02 0.02 0.02 0.03 0.03 0.02 0.02 0.01 0.01
0.01 0.01 0.02 0.01 0.01 0.02 0.02 0.02 0.03 0.04 0.05 0.06 0.07 0.10 0.13 0.13 0.13 0.13 0.12 0.11 0.10 0.10 0.08 0.07 0.04 0.03 0.03 0.03 0.02 0.02 0.03 0.03 0.02 0.02 0.02 0.02 0.02 0.02 0.03 0.03 0.02 0.01 0.01
0.02 0.02 0.01 0.01 0.01 0.02 0.01 0.02 0.02 0.03 0.04 0.05 0.06 0.09 0.12 0.14 0.15 0.14 0.12 0.12 0.13 0.14 0.12 0.09 0.06 0.05 0.05 0.04 0.02 0.02 0.02 0.03 0.03 0.03 0.03 0.02 0.02 0.02 0.03 0.04 0.04 0.03 0.02
0.03 0.03 0.02 0.03 0.03 0.03 0.03 0.02 0.03 0.03 0.04 0.04 0.06 0.08 0.10 0.11 0.11 0.09 0.08 0.11 0.17 0.18 0.17 0.14 0.09 0.07 0.06 0.05 0.05 0.03 0.04 0.03 0.02 0.02 0.02 0.02 0.01 0.02 0.03 0.03 0.04 0.03 0.03
0.06 0.05 0.05 0.06 0.06 0.05 0.04 0.03 0.03 0.03 0.03 0.05 0.09 0.12 0.13 0.11 0.08 0.07 0.08 0.11 0.13 0.14 0.16 0.10 0.09 0.09 0.08 0.06 0.05 0.04 0.04 0.03 0.03 0.02 0.02 0.02 0.02 0.03 0.03 0.03 0.04 0.03 0.02
0.06 0.07 0.07 0.07 0.06 0.04 0.03 0.03 0.03 0.03 0.06 0.07 0.09 0.11 0.10 0.08 0.05 0.06 0.07 0.09 0.10 0.10 0.12 0.12 0.09 0.07 0.07 0.07 0.06 0.06 0.06 0.05 0.03 0.02 0.02 0.01 0.01 0.02 0.04 0.04 0.03 0.02 0.02
0.04 0.07 0.06 0.06 0.06 0.05 0.04 0.03 0.04 0.05 0.08 0.10 0.08 0.05 0.05 0.04 0.03 0.04 0.06 0.05 0.05 0.07 0.07 0.11 0.12 0.09 0.06 0.04 0.04 0.04 0.05 0.07 0.06 0.05 0.02 0.01 0.01 0.01 0.02 0.02 0.02 0.02 0.02
0.04 0.05 0.05 0.07 0.08 0.06 0.05 0.05 0.04 0.03 0.04 0.05 0.04 0.03 0.03 0.04 0.03 0.03 0.05 0.04 0.03 0.03 0.03 0.05 0.09 0.08 0.07 0.04 0.02 0.02 0.03 0.03 0.04 0.05 0.04 0.03 0.02 0.01 0.01 0.02 0.02 0.02 0.02
0.02 0.03 0.05 0.06 0.06 0.06 0.06 0.06 0.05 0.05 0.06 0.05 0.03 0.02 0.02 0.04 0.04 0.03 0.03 0.03 0.03 0.03 0.03 0.03 0.05 0.07 0.05 0.04 0.03 0.02 0.02 0.01 0.02 0.02 0.02 0.03 0.03 0.03 0.02 0.03 0.02 0.02 0.02
0.02 0.02 0.03 0.03 0.04 0.05 0.05 0.05 0.04 0.06 0.07 0.06 0.04 0.02 0.02 0.03 0.04 0.04 0.03 0.03 0.02 0.02 0.02 0.03 0.03 0.05 0.05 0.03 0.02 0.02 0.02 0.01 0.02 0.02 0.02 0.02 0.02 0.03 0.03 0.03 0.02 0.02 0.02
0.02 0.01 0.01 0.01 0.02 0.03 0.03 0.03 0.04 0.05 0.06 0.06 0.04 0.03 0.03 0.02 0.02 0.03 0.04 0.03 0.03 0.03 0.02 0.02 0.02 0.02 0.03 0.03 0.02 0.01 0.01 0.01 0.01 0.01 0.01 0.01 0.02 0.02 0.01 0.02 0.02 0.02 0.02
0.02 0.02 0.01 0.01 0.02 0.03 0.03 0.03 0.05 0.05 0.05 0.05 0.04 0.03 0.03 0.02 0.02 0.02 0.04 0.04 0.04 0.03 0.03 0.02 0.03 0.03 0.03 0.04 0.02 0.01 0.01 0.01 0.01 0.01 0.01 0.01 0.01 0.01 0.01 0.01 0.01 0.01 0.01
0.03 0.03 0.01 0.01 0.02 0.03 0.04 0.04 0.05 0.05 0.04 0.03 0.02 0.02 0.01 0.01 0.02 0.02 0.03 0.04 0.03 0.03 0.02 0.02 0.03 0.03 0.04 0.05 0.04 0.03 0.01 0.01 0.01 0.01 0.01 0.02 0.01 0.01 0.01 0.01 0.01 0.01 0.01
0.04 0.04 0.03 0.02 0.03 0.03 0.03 0.02 0.03 0.03 0.02 0.02 0.02 0.02 0.02 0.01 0.01 0.01 0.02 0.03 0.03 0.03 0.03 0.02 0.03 0.04 0.05 0.05 0.04 0.03 0.02 0.01 0.01 0.01 0.01 0.02 0.02 0.02 0.01 0.01 0.00 0.00 0.01
0.05 0.05 0.05 0.04 0.03 0.02 0.02 0.02 0.02 0.02 0.01 0.02 0.02 0.01 0.01 0.01 0.01 0.01 0.01 0.01 0.02 0.03 0.03 0.04 0.05 0.04 0.03 0.04 0.04 0.03 0.02 0.01 0.01 0.01 0.01 0.01 0.01 0.01 0.02 0.01 0.01 0.01 0.01
0.04 0.04 0.05 0.04 0.03 0.02 0.02 0.01 0.01 0.02 0.02 0.02 0.02 0.02 0.01 0.01 0.00 0.01 0.01 0.01 0.01 0.01 0.02 0.03 0.03 0.03 0.03 0.04 0.04 0.04 0.03 0.02 0.01 0.01 0.01 0.00 0.01 0.01 0.01 0.01 0.01 0.01 0.01
0.03 0.04 0.04 0.05 0.04 0.03 0.02 0.02 0.02 0.02 0.03 0.04 0.03 0.02 0.02 0.02 0.01 0.01 0.01 0.01 0.01 0.01 0.01 0.01 0.01 0.02 0.02 0.03 0.05 0.05 0.04 0.03 0.02 0.02 0.01 0.01 0.01 0.01 0.01 0.01 0.01 0.01 0.01
0.02 0.05 0.04 0.05 0.05 0.05 0.05 0.04 0.03 0.03 0.03 0.03 0.03 0.03 0.02 0.02 0.02 0.02 0.01 0.01 0.01 0.01 0.02 0.02 0.02 0.02 0.02 0.02 0.03 0.03 0.03 0.03 0.03 0.02 0.02 0.02 0.02 0.02 0.01 0.01 0.01 0.01 0.01
0.02 0.04 0.06 0.05 0.04 0.06 0.06 0.06 0.05 0.04 0.03 0.03 0.03 0.03 0.03 0.02 0.02 0.02 0.02 0.02 0.01 0.02 0.02 0.02 0.03 0.02 0.02 0.02 0.03 0.03 0.03 0.03 0.03 0.04 0.03 0.03 0.02 0.02 0.02 0.02 0.01 0.01 0.01
0.02 0.02 0.03 0.04 0.04 0.04 0.05 0.06 0.07 0.05 0.04 0.03 0.03 0.03 0.02 0.02 0.02 0.03 0.03 0.03 0.02 0.02 0.02 0.01 0.01 0.01 0.01 0.02 0.02 0.03 0.04 0.04 0.05 0.05 0.05 0.05 0.05 0.05 0.04 0.04 0.03 0.03 0.02
MSLP
1007.72 1008.50 1009.30 1010.04 1010.65 1011.10 1011.39 1011.55 1011.63 1011.67 1011.72 1011.81 1011.94 1012.11 1012.31 1012.51 1012.70 1012.87 1013.02 1013.16 1013.32 1013.50 1013.73 1014.04 1014.42 1014.89 1015.44 1016.06 1016.74 1017.46 1018.21 1018.95 1019.68 1020.35 1020.95 1021.46 1021.86 1022.16 1022.34 1022.43 1022.45 1022.42 1022.37
1007.84 1008.62 1009.42 1010.16 1010.77 1011.22 1011.52 1011.72 1011.85 1011.96 1012.09 1012.25 1012.46 1012.68 1012.90 1013.10 1013.27 1013.41 1013.53 1013.65 1013.79 1013.98 1014.24 1014.58 1014.99 1015.48 1016.02 1016.60 1017.23 1017.87 1018.53 1019.20 1019.86 1020.50 1021.10 1021.63 1022.08 1022.43 1022.68 1022.83 1022.90 1022.90 1022.85
1008.02 1008.80 1009.59 1010.31 1010.91 1011.35 1011.67 1011.89 1012.06 1012.24 1012.44 1012.68 1012.95 1013.22 1013.46 1013.67 1013.82 1013.93 1014.02 1014.12 1014.26 1014.46 1014.74 1015.11 1015.54 1016.03 1016.56 1017.10 1017.65 1018.21 1018.77 1019.35 1019.93 1020.52 1021.10 1021.65 1022.14 1022.56 1022.89 1023.11 1023.24 1023.28 1023.27
1008.27 1009.03 1009.81 1010.51 1011.08 1011.51 1011.83 1012.06 1012.27 1012.49 1012.75 1013.05 1013.37 1013.68 1013.95 1014.16 1014.30 1014.40 1014.47 1014.56 1014.70 1014.91 1015.21 1015.60 1016.05 1016.54 1017.05 1017.54 1018.03 1018.50 1018.96 1019.44 1019.94 1020.47 1021.01 1021.56 1022.08 1022.55 1022.94 1023.23 1023.43 1023.53 1023.56
1008.58 1009.32 1010.06 1010.73 1011.28 1011.69 1011.99 1012.23 1012.45 1012.70 1013.00 1013.33 1013.68 1014.02 1014.31 1014.53 1014.68 1014.77 1014.84 1014.93 1015.08 1015.31 1015.63 1016.04 1016.50 1016.99 1017.48 1017.94 1018.36 1018.75 1019.13 1019.52 1019.94 1020.39 1020.89 1021.41 1021.93 1022.42 1022.85 1023.20 1023.45 1023.61 1023.68
1008.93 1009.63 1010.34 1010.97 1011.49 1011.87 1012.16 1012.38 1012.60 1012.85 1013.16 1013.51 1013.88 1014.24 1014.54 1014.78 1014.93 1015.04 1015.12 1015.23 1015.39 1015.64 1015.98 1016.40 1016.87 1017.36 1017.84 1018.27 1018.65 1018.99 1019.30 1019.62 1019.95 1020.33 1020.76 1021.23 1021.71 1022.19 1022.63 1023.00 1023.30 1023.50 1023.62
1009.28 1009.94 1010.61 1011.21 1011.69 1012.05 1012.31 1012.51 1012.72 1012.96 1013.26 1013.61 1013.98 1014.34 1014.66 1014.91 1015.09 1015.21 1015.32 1015.44 1015.62 1015.89 1016.24 1016.67 1017.15 1017.64 1018.11 1018.54 1018.90 1019.21 1019.47 1019.73 1020.00 1020.31 1020.66 1021.06 1021.48 1021.91 1022.32 1022.69 1023.00 1023.23 1023.39
1009.60 1010.22 1010.86 1011.43 1011.88 1012.21 1012.44 1012.63 1012.81 1013.03 1013.31 1013.65 1014.02 1014.38 1014.70 1014.97 1015.17 1015.32 1015.45 1015.60 1015.80 1016.07 1016.43 1016.87 1017.35 1017.84 1018.31 1018.73 1019.09 1019.39 1019.64 1019.87 1020.09 1020.34 1020.61 1020.93 1021.27 1021.63 1021.98 1022.32 1022.62 1022.87 1023.07
1009.85 1010.45 1011.06 1011.60 1012.03 1012.35 1012.57 1012.74 1012.90 1013.11 1013.37 1013.68 1014.04 1014.39 1014.72 1015.00 1015.22 1015.40 1015.56 1015.73 1015.94 1016.22 1016.58 1017.00 1017.47 1017.96 1018.43 1018.86 1019.24 1019.55 1019.81 1020.02 1020.22 1020.42 1020.63 1020.86 1021.12 1021.39 1021.68 1021.97 1022.24 1022.51 1022.74
1010.03 1010.61 1011.20 1011.73 1012.15 1012.46 1012.68 1012.84 1013.00 1013.19 1013.44 1013.74 1014.08 1014.43 1014.76 1015.05 1015.30 1015.50 1015.68 1015.87 1016.09 1016.36 1016.70 1017.11 1017.56 1018.04 1018.50 1018.94 1019.34 1019.67 1019.95 1020.18 1020.38 1020.55 1020.71 1020.88 1021.06 1021.25 1021.46 1021.70 1021.95 1022.22 1022.48
1010.13 1010.70 1011.27 1011.79 1012.22 1012.54 1012.76 1012.94 1013.11 1013.30 1013.54 1013.83 1014.16 1014.51 1014.84 1015.14 1015.40 1015.63 1015.83 1016.03 1016.25 1016.51 1016.83 1017.21 1017.64 1018.09 1018.55 1019.00 1019.41 1019.77 1020.08 1020.34 1020.55 1020.72 1020.86 1020.98 1021.10 1021.23 1021.38 1021.57 1021.79 1022.05 1022.34
1010.18 1010.74 1011.31 1011.82 1012.24 1012.57 1012.82 1013.02 1013.21 1013.42 1013.66 1013.95 1014.27 1014.61 1014.95 1015.26 1015.53 1015.77 1015.99 1016.20 1016.43 1016.68 1016.98 1017.33 1017.73 1018.15 1018.60 1019.04 1019.46 1019.86 1020.20 1020.50 1020.73 1020.92 1021.06 1021.16 1021.24 1021.33 1021.43 1021.58 1021.77 1022.03 1022.33
1010.22 1010.77 1011.31 1011.81 1012.23 1012.57 1012.84 1013.06 1013.28 1013.50 1013.76 1014.05 1014.37 1014.71 1015.05 1015.36 1015.65 1015.91 1016.15 1016.37 1016.61 1016.86 1017.15 1017.48 1017.84 1018.24 1018.66 1019.09 1019.52 1019.93 1020.30 1020.63 1020.90 1021.11 1021.26 1021.37 1021.44 1021.50 1021.58 1021.69 1021.87 1022.10 1022.40
1010.28 1010.80 1011.31 1011.78 1012.18 1012.52 1012.80 1013.05 1013.28 1013.53 1013.80 1014.09 1014.41 1014.74 1015.08 1015.40 1015.70 1015.98 1016.24 1016.49 1016.75 1017.01 1017.30 1017.62 1017.97 1018.34 1018.74 1019.16 1019.58 1019.99 1020.38 1020.73 1021.03 1021.27 1021.45 1021.57 1021.64 1021.70 1021.76 1021.86 1022.01 1022.22 1022.51
1010.40 1010.86 1011.32 1011.74 1012.11 1012.43 1012.71 1012.96 1013.21 1013.47 1013.75 1014.04 1014.35 1014.67 1015.00 1015.32 1015.63 1015.93 1016.22 1016.51 1016.80 1017.10 1017.41 1017.74 1018.08 1018.44 1018.82 1019.22 1019.63 1020.03 1020.42 1020.78 1021.10 1021.37 1021.57 1021.71 1021.81 1021.88 1021.94 1022.02 1022.15 1022.34 1022.59
1010.56 1010.97 1011.35 1011.70 1012.02 1012.31 1012.57 1012.82 1013.07 1013.32 1013.59 1013.87 1014.17 1014.47 1014.78 1015.09 1015.41 1015.74 1016.06 1016.40 1016.74 1017.08 1017.43 1017.79 1018.15 1018.51 1018.88 1019.26 1019.65 1020.03 1020.41 1020.77 1021.10 1021.38 1021.61 1021.78 1021.90 1021.99 1022.06 1022.14 1022.25 1022.41 1022.63
1010.77 1011.10 1011.40 1011.68 1011.93 1012.16 1012.39 1012.62 1012.85 1013.10 1013.35 1013.60 1013.87 1014.14 1014.43 1014.73 1015.05 1015.39 1015.75 1016.13 1016.53 1016.93 1017.34 1017.73 1018.12 1018.50 1018.87 1019.24 1019.61 1019.98 1020.34 1020.69 1021.02 1021.31 1021.56 1021.76 1021.91 1022.02 1022.11 1022.19 1022.29 1022.43 1022.61
1010.98 1011.23 1011.45 1011.64 1011.83 1012.01 1012.19 1012.39 1012.60 1012.81 1013.03 1013.25 1013.47 1013.71 1013.96 1014.24 1014.55 1014.90 1015.29 1015.72 1016.17 1016.63 1017.10 1017.55 1017.98 1018.39 1018.78 1019.14 1019.50 1019.85 1020.19 1020.53 1020.86 1021.16 1021.43 1021.66 1021.84 1021.99 1022.10 1022.20 1022.30 1022.42 1022.57
1011.15 1011.33 1011.47 1011.59 1011.70 1011.83 1011.97 1012.13 1012.30 1012.48 1012.66 1012.84 1013.01 1013.20 1013.41 1013.66 1013.96 1014.31 1014.71 1015.17 1015.67 1016.19 1016.72 1017.22 1017.71 1018.15 1018.56 1018.94 1019.30 1019.64 1019.98 1020.31 1020.64 1020.95 1021.24 1021.50 1021.72 1021.91 1022.06 1022.18 1022.29 1022.41 1022.53
1011.22 1011.33 1011.41 1011.46 1011.53 1011.60 1011.70 1011.82 1011.96 1012.10 1012.23 1012.37 1012.50 1012.65 1012.81 1013.03 1013.30 1013.64 1014.05 1014.53 1015.06 1015.63 1016.20 1016.77 1017.30 1017.79 1018.23 1018.64 1019.01 1019.36 1019.70 1020.04 1020.38 1020.71 1021.02 1021.31 1021.58 1021.81 1022.00 1022.15 1022.29 1022.41 1022.52
1011.14 1011.20 1011.21 1011.22 1011.24 1011.28 1011.34 1011.42 1011.53 1011.63 1011.73 1011.83 1011.92 1012.03 1012.16 1012.34 1012.59 1012.92 1013.33 1013.82 1014.38 1014.97 1015.59 1016.20 1016.77 1017.31 1017.80 1018.24 1018.64 1019.02 1019.38 1019.73 1020.09 1020.44 1020.78 1021.11 1021.42 1021.69 1021.92 1022.11 1022.27 1022.41 1022.53
1010.86 1010.87 1010.84 1010.80 1010.78 1010.79 1010.82 1010.88 1010.95 1011.03 1011.10 1011.17 1011.24 1011.33 1011.44 1011.60 1011.84 1012.16 1012.57 1013.06 1013.63 1014.25 1014.89 1015.54 1016.16 1016.74 1017.27 1017.76 1018.21 1018.62 1019.01 1019.40 1019.78 1020.15 1020.53 1020.89 1021.23 1021.54 1021.80 1022.04 1022.23 1022.38 1022.51
1010.35 1010.30 1010.23 1010.16 1010.10 1010.08 1010.08 1010.12 1010.17 1010.23 1010.29 1010.35 1010.42 1010.50 1010.61 1010.78 1011.02 1011.34 1011.76 1012.26 1012.84 1013.48 1014.14 1014.82 1015.48 1016.11 1016.69 1017.23 1017.72 1018.18 1018.61 1019.03 1019.44 1019.84 1020.23 1020.62 1020.98 1021.32 1021.62 1021.88 1022.10 1022.27 1022.41
1009.58 1009.47 1009.35 1009.24 1009.16 1009.10 1009.08 1009.10 1009.14 1009.19 1009.25 1009.32 1009.41 1009.51 1009.65 1009.84 1010.11 1010.45 1010.89 1011.41 1012.01 1012.66 1013.36 1014.06 1014.76 1015.43 1016.06 1016.65 1017.19 1017.69 1018.17 1018.62 1019.05 1019.47 1019.88 1020.28 1020.65 1021.00 1021.32 1021.60 1021.83 1022.03 1022.18
1008.54 1008.37 1008.20 1008.05 1007.93 1007.86 1007.82 1007.82 1007.85 1007.91 1007.99 1008.08 1008.20 1008.35 1008.54 1008.78 1009.09 1009.48 1009.96 1010.51 1011.13 1011.82 1012.53 1013.27 1014.00 1014.71 1015.39 1016.03 1016.61 1017.16 1017.67 1018.15 1018.60 1019.03 1019.44 1019.83 1020.21 1020.56 1020.88 1021.16 1021.41 1021.62 1021.79
1007.27 1007.03 1006.81 1006.62 1006.48 1006.38 1006.32 1006.32 1006.35 1006.42 1006.52 1006.66 1006.83 1007.04 1007.29 1007.61 1007.98 1008.44 1008.96 1009.56 1010.22 1010.93 1011.68 1012.45 1013.22 1013.97 1014.68 1015.36 1015.99 1016.57 1017.11 1017.60 1018.06 1018.49 1018.89 1019.27 1019.63 1019.97 1020.28 1020.57 1020.83 1021.05 1021.24
Thickness
5762 5761 5759 5757 5753 5750 5746 5744 5740 5738 5735 5732 5728 5725 5722 5722 5721 5721 5721 5721 5719 5718 5716 5715 5713 5711 5710 5708 5707 5704 5702 5701 5700 5698 5697 5698 5699 5700 5700 5700 5699 5699 5699
5754 5754 5753 5751 5748 5745 5742 5740 5736 5733 5731 5729 5726 5723 5719 5717 5717 5717 5717 5717 5716 5714 5712 5711 5709 5708 5706 5703 5703 5702 5699 5697 5697 5694 5691 5689 5691 5694 5696 5696 5695 5695 5695
5749 5749 5748 5747 5744 5741 5738 5737 5733 5730 5727 5724 5721 5718 5714 5712 5711 5710 5711 5711 5711 5710 5709 5708 5706 5704 5703 5700 5699 5699 5698 5694 5693 5693 5690 5685 5683 5685 5689 5691 5691 5691 5691
5746 5745 5744 5742 5740 5738 5736 5733 5730 5727 5724 5721 5717 5714 5710 5707 5707 5707 5707 5707 5707 5706 5705 5704 5702 5701 5700 5698 5697 5696 5696 5694 5690 5688 5688 5686 5685 5682 5681 5684 5685 5686 5686
5743 5741 5741 5739 5737 5735 5731 5728 5725 5721 5719 5716 5713 5710 5706 5704 5703 5703 5703 5702 5702 5702 5701 5700 5698 5697 5696 5695 5694 5692 5692 5691 5689 5686 5684 5682 5681 5681 5678 5677 5679 5681 5682
5739 5738 5737 5735 5732 5729 5726 5723 5720 5717 5715 5712 5709 5706 5703 5700 5699 5698 5697 5697 5697 5697 5697 5696 5695 5694 5693 5691 5690 5689 5688 5687 5686 5685 5683 5681 5679 5677 5676 5674 5673 5674 5678
5733 5731 5731 5728 5725 5723 5720 5717 5715 5712 5710 5708 5705 5702 5700 5698 5696 5695 5693 5692 5692 5692 5692 5692 5691 5690 5689 5688 5687 5685 5684 5683 5683 5682 5681 5680 5679 5677 5675 5673 5671 5670 5673
5726 5725 5725 5723 5720 5718 5715 5712 5709 5707 5705 5702 5700 5697 5695 5694 5692 5691 5690 5689 5689 5689 5689 5688 5687 5687 5686 5685 5683 5682 5681 5679 5679 5679 5678 5677 5676 5675 5674 5672 5669 5667 5667
5720 5719 5718 5717 5714 5711 5709 5707 5704 5702 5700 5698 5695 5693 5690 5689 5688 5687 5686 5685 5685 5685 5683 5683 5683 5682 5682 5681 5679 5678 5676 5675 5675 5675 5674 5673 5673 5672 5672 5671 5669 5665 5663
5713 5713 5711 5710 5708 5705 5703 5702 5700 5697 5696 5694 5691 5689 5687 5686 5684 5682 5681 5681 5680 5680 5679 5679 5678 5677 5677 5676 5675 5673 5672 5671 5671 5671 5670 5669 5669 5668 5668 5667 5666 5665 5663
5706 5706 5704 5704 5702 5700 5698 5696 5694 5692 5690 5688 5686 5685 5682 5681 5680 5679 5677 5676 5676 5675 5674 5674 5673 5673 5672 5671 5669 5668 5667 5666 5666 5666 5666 5666 5665 5664 5664 5663 5662 5661 5660
5698 5699 5697 5696 5695 5694 5692 5690 5689 5687 5686 5684 5681 5679 5677 5675 5674 5674 5673 5671 5671 5670 5669 5669 5668 5669 5667 5666 5664 5663 5663 5662 5662 5662 5662 5662 5661 5660 5660 5659 5658 5657 5656
5690 5690 5689 5688 5687 5686 5685 5684 5683 5682 5681 5679 5676 5673 5672 5670 5669 5669 5668 5667 5667 5666 5664 5664 5664 5664 5663 5662 5661 5660 5659 5658 5658 5658 5658 5658 5657 5656 5655 5655 5654 5653 5652
5682 5682 5680 5680 5679 5678 5677 5676 5676 5676 5675 5673 5671 5669 5668 5667 5665 5665 5664 5662 5662 5660 5660 5659 5658 5658 5658 5657 5656 5655 5654 5653 5653 5653 5654 5654 5653 5653 5652 5651 5649 5648 5646
5675 5675 5673 5672 5672 5671 5670 5669 5669 5670 5669 5667 5666 5664 5664 5663 5661 5660 5659 5658 5657 5656 5655 5654 5653 5653 5652 5652 5651 5650 5650 5649 5648 5649 5649 5650 5650 5650 5649 5648 5646 5644 5641
5668 5667 5667 5666 5665 5664 5664 5663 5664 5664 5663 5662 5661 5660 5658 5658 5657 5656 5655 5654 5652 5651 5650 5649 5648 5648 5649 5648 5647 5646 5645 5644 5644 5644 5644 5644 5645 5645 5644 5644 5642 5640 5638
5661 5660 5659 5659 5659 5658 5657 5657 5658 5658 5657 5657 5656 5654 5653 5652 5652 5651 5650 5649 5647 5645 5644 5644 5643 5643 5644 5644 5643 5642 5642 5641 5640 5639 5639 5640 5641 5639 5639 5638 5637 5635 5634
5655 5653 5652 5652 5652 5652 5652 5651 5651 5651 5651 5650 5650 5649 5648 5647 5646 5645 5643 5642 5641 5640 5639 5638 5638 5638 5639 5639 5638 5637 5637 5636 5636 5636 5635 5634 5634 5635 5634 5632 5631 5630 5629
5646 5646 5646 5645 5645 5645 5645 5644 5643 5643 5644 5644 5644 5644 5643 5643 5642 5640 5639 5638 5636 5635 5634 5634 5634 5633 5634 5633 5633 5632 5631 5631 5631 5631 5631 5630 5630 5630 5628 5627 5626 5625 5624
5639 5639 5639 5639 5638 5638 5638 5637 5636 5636 5637 5638 5639 5639 5638 5638 5637 5636 5634 5633 5631 5630 5629 5629 5629 5629 5629 5629 5628 5627 5627 5626 5626 5626 5626 5626 5625 5624 5623 5622 5621 5620 5620
5630 5631 5631 5631 5630 5630 5630 5630 5630 5630 5631 5632 5633 5633 5633 5632 5632 5631 5629 5627 5626 5624 5623 5623 5623 5623 5623 5623 5623 5622 5621 5621 5621 5621 5621 5621 5620 5619 5618 5617 5616 5616 5614
5622 5622 5622 5622 5622 5622 5622 5623 5623 5625 5625 5625 5626 5626 5627 5627 5627 5625 5623 5622 5620 5618 5617 5617 5617 5617 5618 5618 5618 5616 5616 5616 5616 5616 5617 5617 5615 5614 5612 5611 5611 5610 5608
5613 5613 5613 5613 5614 5614 5614 5615 5617 5618 5619 5618 5619 5619 5620 5620 5620 5619 5618 5616 5614 5612 5611 5611 5611 5612 5612 5613 5612 5612 5612 5611 5611 5612 5612 5611 5610 5608 5607 5607 5606 5604 5603
5605 5605 5605 5605 5606 5607 5608 5609 5611 5612 5611 5611 5612 5613 5613 5613 5613 5613 5612 5611 5609 5608 5607 5606 5607 5607 5607 5607 5607 5607 5607 5606 5606 5606 5605 5605 5604 5603 5602 5602 5601 5600 5599
5597 5597 5597 5597 5598 5599 5600 5602 5604 5604 5604 5604 5605 5606 5606 5606 5606 5606 5606 5606 5606 5605 5604 5604 5603 5603 5603 5604 5603 5603 5602 5602 5602 5600 5599 5599 5599 5599 5598 5598 5597 5597 5596
5590 5590 5590 5590 5591 5592 5593 5595 5596 5596 5596 5596 5598 5599 5599 5599 5600 5600 5600 5600 5600 5600 5600 5600 5599 5600 5600 5600 5599 5599 5598 5597 5596 5595 5596 5596 5595 5595 5595 5594 5594 5593 5592